TimeCDT,TemperatureF,Dew PointF,Humidity,Sea Level PressureIn,VisibilityMPH,Wind Direction,Wind SpeedMPH,Gust SpeedMPH,PrecipitationIn,Events,Conditions,WindDirDegrees,DateUTC
12:15 AM,56.8,48.6,74,30.12,10.0,NE,4.6,-,N/A,,Clear,50,2013-09-14 05:15:00
12:35 AM,56.3,48.4,75,30.13,10.0,ENE,3.5,-,N/A,,Clear,60,2013-09-14 05:35:00
12:55 AM,55.6,48.6,77,30.13,10.0,NE,3.5,-,N/A,,Clear,50,2013-09-14 05:55:00
1:15 AM,55.4,48.4,77,30.13,10.0,NE,3.5,-,N/A,,Clear,50,2013-09-14 06:15:00
1:35 AM,55.2,48.2,77,30.13,10.0,NE,5.8,-,N/A,,Clear,50,2013-09-14 06:35:00
1:55 AM,54.9,48.2,78,30.13,10.0,NE,5.8,-,N/A,,Clear,50,2013-09-14 06:55:00
2:15 AM,54.1,48.2,80,30.13,10.0,NE,4.6,-,N/A,,Clear,50,2013-09-14 07:15:00
2:35 AM,53.8,47.7,80,30.13,10.0,NE,5.8,-,N/A,,Clear,50,2013-09-14 07:35:00
2:55 AM,53.2,47.5,81,30.13,10.0,NE,3.5,-,N/A,,Clear,50,2013-09-14 07:55:00
3:15 AM,52.7,47.3,82,30.12,10.0,NE,5.8,-,N/A,,Clear,50,2013-09-14 08:15:00
3:35 AM,52.7,47.3,82,30.12,10.0,ENE,4.6,-,N/A,,Clear,60,2013-09-14 08:35:00
3:55 AM,52.7,46.9,81,30.12,10.0,ENE,3.5,-,N/A,,Clear,60,2013-09-14 08:55:00
4:15 AM,52.0,46.8,82,30.12,10.0,Calm,Calm,-,N/A,,Clear,0,2013-09-14 09:15:00
4:35 AM,50.9,46.6,85,30.12,10.0,NE,3.5,-,N/A,,Clear,40,2013-09-14 09:35:00
4:55 AM,49.6,46.4,89,30.12,10.0,Calm,Calm,-,N/A,,Clear,0,2013-09-14 09:55:00
5:15 AM,49.3,46.4,90,30.12,10.0,NE,3.5,-,N/A,,Clear,40,2013-09-14 10:15:00
5:35 AM,49.1,46.2,90,30.13,10.0,NE,3.5,-,N/A,,Clear,40,2013-09-14 10:35:00
5:55 AM,49.5,46.0,88,30.13,10.0,NE,3.5,-,N/A,,Clear,50,2013-09-14 10:55:00
6:15 AM,49.3,46.0,89,30.13,10.0,NE,3.5,-,N/A,,Clear,50,2013-09-14 11:15:00
6:35 AM,49.1,45.9,89,30.14,10.0,Calm,Calm,-,N/A,,Clear,0,2013-09-14 11:35:00
6:55 AM,48.6,45.7,90,30.15,10.0,NE,3.5,-,N/A,,Clear,40,2013-09-14 11:55:00
7:15 AM,49.1,46.0,89,30.15,10.0,NE,3.5,-,N/A,,Clear,50,2013-09-14 12:15:00
7:35 AM,50.0,46.8,89,30.16,10.0,NE,3.5,-,N/A,,Clear,50,2013-09-14 12:35:00
7:55 AM,51.8,47.5,85,30.16,10.0,ENE,5.8,-,N/A,,Clear,60,2013-09-14 12:55:00
8:15 AM,53.1,47.8,82,30.17,10.0,East,4.6,-,N/A,,Clear,80,2013-09-14 13:15:00
8:35 AM,55.2,48.6,78,30.17,10.0,East,5.8,-,N/A,,Clear,100,2013-09-14 13:35:00
8:55 AM,57.0,48.9,74,30.17,10.0,East,4.6,-,N/A,,Clear,100,2013-09-14 13:55:00
9:15 AM,58.5,48.9,71,30.17,10.0,East,5.8,-,N/A,,Clear,100,2013-09-14 14:15:00
9:35 AM,59.9,49.3,68,30.17,10.0,ESE,4.6,-,N/A,,Clear,120,2013-09-14 14:35:00
9:55 AM,61.3,49.5,65,30.17,10.0,ESE,4.6,-,N/A,,Clear,110,2013-09-14 14:55:00
10:15 AM,63.5,50.4,62,30.18,10.0,ESE,3.5,-,N/A,,Clear,120,2013-09-14 15:15:00
10:35 AM,64.4,49.6,59,30.18,10.0,Calm,Calm,-,N/A,,Clear,0,2013-09-14 15:35:00
10:55 AM,65.5,48.9,55,30.18,10.0,South,3.5,-,N/A,,Clear,170,2013-09-14 15:55:00
11:15 AM,66.4,48.7,53,30.18,10.0,South,3.5,-,N/A,,Clear,190,2013-09-14 16:15:00
11:35 AM,67.8,47.7,48,30.17,10.0,Calm,Calm,-,N/A,,Clear,0,2013-09-14 16:35:00
11:55 AM,68.9,47.8,47,30.17,10.0,South,4.6,-,N/A,,Clear,190,2013-09-14 16:55:00
12:15 PM,69.4,48.0,46,30.17,10.0,SSE,6.9,-,N/A,,Clear,160,2013-09-14 17:15:00
12:35 PM,69.3,47.7,46,30.16,10.0,Calm,Calm,-,N/A,,Clear,0,2013-09-14 17:35:00
12:55 PM,70.3,45.9,41,30.15,10.0,Calm,Calm,-,N/A,,Clear,0,2013-09-14 17:55:00
1:15 PM,69.6,46.2,43,30.15,10.0,Calm,Calm,-,N/A,,Clear,0,2013-09-14 18:15:00
1:35 PM,72.3,47.5,41,30.14,10.0,ESE,5.8,-,N/A,,Clear,120,2013-09-14 18:35:00
1:55 PM,72.0,46.8,41,30.13,10.0,South,4.6,-,N/A,,Clear,170,2013-09-14 18:55:00
2:15 PM,72.3,46.6,40,30.12,10.0,Calm,Calm,-,N/A,,Clear,0,2013-09-14 19:15:00
2:35 PM,72.9,44.8,37,30.12,10.0,ESE,4.6,-,N/A,,Clear,120,2013-09-14 19:35:00
2:55 PM,73.0,45.3,37,30.11,10.0,ESE,4.6,-,N/A,,Clear,120,2013-09-14 19:55:00
3:15 PM,73.6,46.4,38,30.10,10.0,NE,4.6,-,N/A,,Clear,50,2013-09-14 20:15:00
3:35 PM,73.8,46.6,38,30.09,10.0,East,3.5,-,N/A,,Clear,80,2013-09-14 20:35:00
3:55 PM,74.1,46.6,37,30.08,10.0,ESE,5.8,-,N/A,,Clear,110,2013-09-14 20:55:00
4:15 PM,74.3,45.3,36,30.08,10.0,Calm,Calm,-,N/A,,Clear,0,2013-09-14 21:15:00
4:35 PM,74.1,45.9,36,30.08,10.0,SSE,3.5,-,N/A,,Clear,160,2013-09-14 21:35:00
4:55 PM,73.9,45.0,35,30.08,10.0,Calm,Calm,-,N/A,,Clear,0,2013-09-14 21:55:00
5:15 PM,74.3,45.9,36,30.08,10.0,East,4.6,-,N/A,,Clear,90,2013-09-14 22:15:00
5:35 PM,74.1,46.8,38,30.08,10.0,Calm,Calm,-,N/A,,Clear,0,2013-09-14 22:35:00
5:55 PM,73.2,45.0,36,30.08,10.0,Calm,Calm,-,N/A,,Clear,0,2013-09-14 22:55:00
6:15 PM,72.9,45.3,37,30.07,10.0,Calm,Calm,-,N/A,,Clear,0,2013-09-14 23:15:00
6:35 PM,70.7,46.4,42,30.07,10.0,Calm,Calm,-,N/A,,Clear,0,2013-09-14 23:35:00
6:55 PM,68.5,47.3,47,30.07,10.0,SSE,3.5,-,N/A,,Clear,150,2013-09-14 23:55:00
7:15 PM,63.0,50.0,63,30.08,10.0,Calm,Calm,-,N/A,,Clear,0,2013-09-15 00:15:00
7:35 PM,60.4,50.4,69,30.08,10.0,Calm,Calm,-,N/A,,Clear,0,2013-09-15 00:35:00
7:55 PM,57.6,50.2,76,30.09,10.0,Calm,Calm,-,N/A,,Clear,0,2013-09-15 00:55:00
8:15 PM,55.8,50.7,83,30.09,10.0,Calm,Calm,-,N/A,,Clear,0,2013-09-15 01:15:00
8:35 PM,55.2,50.2,83,30.09,10.0,Calm,Calm,-,N/A,,Clear,0,2013-09-15 01:35:00
8:55 PM,57.6,50.2,76,30.09,10.0,Calm,Calm,-,N/A,,Clear,0,2013-09-15 01:55:00
9:15 PM,56.3,50.2,80,30.10,10.0,Calm,Calm,-,N/A,,Clear,0,2013-09-15 02:15:00
9:35 PM,59.0,48.6,68,30.09,10.0,ESE,3.5,-,N/A,,Clear,120,2013-09-15 02:35:00
9:55 PM,58.6,49.1,71,30.09,10.0,Calm,Calm,-,N/A,,Clear,0,2013-09-15 02:55:00
10:15 PM,57.0,48.9,74,30.08,10.0,ESE,3.5,-,N/A,,Clear,120,2013-09-15 03:15:00
10:35 PM,58.6,48.4,69,30.09,10.0,Calm,Calm,-,N/A,,Clear,0,2013-09-15 03:35:00
10:55 PM,53.8,48.6,82,30.09,10.0,Calm,Calm,-,N/A,,Clear,0,2013-09-15 03:55:00
11:15 PM,51.3,48.4,90,30.09,10.0,Calm,Calm,-,N/A,,Clear,0,2013-09-15 04:15:00
11:35 PM,56.5,48.6,75,30.09,10.0,SSE,3.5,-,N/A,,Clear,150,2013-09-15 04:35:00
11:55 PM,56.1,48.4,75,30.08,10.0,SE,4.6,-,N/A,,Clear,140,2013-09-15 04:55:00